FW8419 Weather Reports


Display with metric or nautical units.
time (UTC)temp
F
wind
direction
speed
MPH
gust
MPH
rain 1hr
in
rain 24hr
in
rain mn
in
humidity
%
barometer
mb
20260901045143 65 256 1.0 6.0 0.00 0.00 0.00 77 1007.5
20260901044122 65 264 0.0 5.0 0.00 0.00 0.00 76 1007.6
20260901043143 66 268 1.0 5.0 0.00 0.00 0.00 74 1007.6
20260901042127 66 267 0.0 3.0 0.00 0.00 0.00 73 1007.6
20260901041122 66 251 0.0 5.0 0.00 0.00 0.00 72 1007.6
20260901040122 67 0 0.0 0.0 0.00 0.00 0.00 70 1007.6
20260901035122 67 0 0.0 0.0 0.00 0.00 0.00 69 1007.6
20260901034122 67 259 0.0 3.0 0.00 0.00 0.00 68 1007.5
20260901033122 68 278 0.0 2.0 0.00 0.00 0.00 67 1007.5
20260901032143 68 283 0.0 5.0 0.00 0.00 0.00 64 1007.5
20260901031123 69 276 0.0 5.0 0.00 0.00 0.00 64 1007.6
20260901030122 69 294 1.0 6.0 0.00 0.00 0.00 64 1007.6
20260901025124 69 318 1.0 6.0 0.00 0.00 0.00 63 1007.7
20260901024124 69 317 1.0 6.0 0.00 0.00 0.00 63 1007.7
20260901023145 70 330 2.0 6.0 0.00 0.00 0.00 62 1007.8
20260901022122 70 321 2.0 10.0 0.00 0.00 0.00 62 1008.0
20260901021122 70 316 2.0 11.0 0.00 0.00 0.00 61 1007.9
20260901020122 70 313 4.0 13.0 0.00 0.00 0.00 60 1008.0
20260901015122 71 297 2.0 11.0 0.00 0.00 0.00 60 1008.1
20260901014122 71 294 2.0 13.0 0.00 0.00 0.00 59 1008.1
20260901013122 71 276 3.0 11.0 0.00 0.00 0.00 59 1008.2
20260901012122 72 284 3.0 11.0 0.00 0.00 0.00 59 1008.2
20260901011124 72 282 3.0 11.0 0.00 0.00 0.00 58 1008.3
20260901010122 73 274 2.0 13.0 0.00 0.00 0.00 57 1008.4
20260901005143 73 284 3.0 11.0 0.00 0.00 0.00 56 1008.4
20260901004143 75 286 3.0 11.0 0.00 0.00 0.00 55 1008.4
20260901003122 75 283 3.0 14.0 0.00 0.00 0.00 55 1008.5
20260901002125 75 285 4.0 13.0 0.00 0.00 0.00 55 1008.7
20260901001122 74 279 4.0 18.0 0.00 0.00 0.00 56 1008.9
20260901000124 74 282 4.0 16.0 0.00 0.00 0.00 55 1009.0
20260831235122 74 273 4.0 14.0 0.00 0.00 0.00 56 1009.0
20260831234122 74 263 5.0 18.0 0.00 0.00 0.00 55 1009.2
20260831233145 74 268 3.0 19.0 0.00 0.00 0.00 55 1009.3
20260831232124 74 264 4.0 14.0 0.00 0.00 0.00 55 1009.3
20260831231122 75 266 3.0 14.0 0.00 0.00 0.00 55 1009.4
20260831230143 75 271 4.0 16.0 0.00 0.00 0.00 55 1009.5
20260831225123 74 254 5.0 16.0 0.00 0.00 0.00 56 1009.6
20260831224122 75 267 5.0 14.0 0.00 0.00 0.00 56 1009.8
20260831223123 74 252 4.0 16.0 0.00 0.00 0.00 57 1010.0
20260831222124 74 255 5.0 14.0 0.00 0.00 0.00 56 1010.0
20260831221122 74 254 3.0 14.0 0.00 0.00 0.00 57 1010.1
20260831220124 74 245 4.0 14.0 0.00 0.00 0.00 57 1010.3
20260831215122 74 283 5.0 14.0 0.00 0.00 0.00 58 1010.5
20260831214124 74 260 4.0 14.0 0.00 0.00 0.00 58 1010.7
20260831213145 73 276 4.0 14.0 0.00 0.00 0.00 59 1010.8
20260831212150 73 262 3.0 14.0 0.00 0.00 0.00 59 1010.8
20260831211124 73 272 4.0 13.0 0.00 0.00 0.00 60 1010.9
20260831210122 73 286 3.0 13.0 0.00 0.00 0.00 60 1010.9
20260831205122 73 299 3.0 13.0 0.00 0.00 0.00 60 1011.1
20260831204122 73 283 4.0 14.0 0.00 0.00 0.00 59 1011.0
20260831203124 72 285 4.0 13.0 0.00 0.00 0.00 59 1011.1
20260831202122 73 282 2.0 10.0 0.00 0.00 0.00 58 1011.2
20260831201143 72 245 4.0 13.0 0.00 0.00 0.00 58 1011.3
20260831200143 72 292 3.0 13.0 0.00 0.00 0.00 59 1011.4
20260831195122 71 347 3.0 11.0 0.00 0.00 0.00 56 1011.5
20260831194124 71 21 3.0 10.0 0.00 0.00 0.00 58 1011.7
20260831193126 70 6 2.0 6.0 0.00 0.00 0.00 60 1012.0
20260831192129 70 6 1.0 8.0 0.00 0.00 0.00 59 1012.1
20260831191122 70 17 3.0 8.0 0.00 0.00 0.00 59 1012.2
20260831190123 70 291 1.0 8.0 0.00 0.00 0.00 61 1012.3
20260831185143 70 257 1.0 6.0 0.00 0.00 0.00 59 1012.6
20260831184124 69 241 1.0 6.0 0.00 0.00 0.00 62 1012.5
20260831183123 69 287 1.0 8.0 0.00 0.00 0.00 63 1012.7
20260831182143 69 253 2.0 6.0 0.00 0.00 0.00 64 1012.8
20260831181143 68 274 1.0 6.0 0.00 0.00 0.00 64 1013.0
20260831180124 68 274 1.0 6.0 0.00 0.00 0.00 64 1013.0
20260831175122 68 282 2.0 13.0 0.00 0.00 0.00 66 1013.1
20260831174122 67 41 1.0 6.0 0.00 0.00 0.00 68 1013.2
20260831173143 66 24 1.0 5.0 0.00 0.00 0.00 68 1013.4
20260831172122 66 42 2.0 6.0 0.00 0.00 0.00 69 1013.2
20260831171124 66 37 2.0 6.0 0.00 0.00 0.00 69 1013.3
20260831170122 66 42 2.0 6.0 0.00 0.00 0.00 68 1013.3
20260831165124 65 0 0.0 0.0 0.00 0.00 0.00 69 1013.4
20260831164127 65 0 0.0 0.0 0.00 0.00 0.00 70 1013.5
20260831163124 65 0 0.0 0.0 0.00 0.00 0.00 69 1013.6
20260831162127 64 0 0.0 0.0 0.00 0.00 0.00 70 1013.6
20260831161122 64 0 0.0 0.0 0.00 0.00 0.00 70 1013.7
20260831160122 64 0 0.0 0.0 0.00 0.00 0.00 72 1013.9
20260831155122 63 0 0.0 0.0 0.00 0.00 0.00 74 1014.1
20260831154122 63 0 0.0 0.0 0.00 0.00 0.00 76 1014.1
20260831153124 62 0 0.0 0.0 0.00 0.00 0.00 79 1014.2
20260831152124 61 0 0.0 0.0 0.00 0.00 0.00 79 1014.1
20260831151122 61 0 0.0 0.0 0.00 0.00 0.00 81 1014.2
20260831150122 59 0 0.0 0.0 0.00 0.00 0.00 84 1014.2
20260831145122 58 0 0.0 0.0 0.00 0.00 0.00 86 1014.1
20260831144122 57 0 0.0 0.0 0.00 0.00 0.00 87 1014.1
20260831143122 56 0 0.0 0.0 0.00 0.00 0.00 88 1014.1
20260831142123 56 0 0.0 0.0 0.00 0.00 0.00 89 1014.2
20260831141124 55 0 0.0 0.0 0.00 0.00 0.00 90 1014.1
20260831140122 54 0 0.0 0.0 0.00 0.00 0.00 90 1014.3
20260831135144 54 0 0.0 0.0 0.00 0.00 0.00 90 1014.2
20260831134123 54 0 0.0 0.0 0.00 0.00 0.00 89 1014.2
20260831133148 54 0 0.0 0.0 0.00 0.00 0.00 89 1014.2
20260831132124 54 0 0.0 0.0 0.00 0.00 0.00 88 1014.3
20260831131143 54 0 0.0 0.0 0.00 0.00 0.00 88 1014.3
20260831130122 54 0 0.0 0.0 0.00 0.00 0.00 88 1014.3
20260831125122 55 0 0.0 0.0 0.00 0.00 0.00 89 1014.4
20260831124124 55 0 0.0 0.0 0.00 0.00 0.00 89 1014.5
20260831123122 55 0 0.0 0.0 0.00 0.00 0.00 89 1014.6
20260831122122 55 0 0.0 0.0 0.00 0.00 0.00 89 1014.7
20260831121122 55 0 0.0 0.0 0.00 0.00 0.00 89 1014.6
20260831120145 55 0 0.0 0.0 0.00 0.00 0.00 89 1014.7
20260831115122 55 0 0.0 0.0 0.00 0.00 0.00 89 1014.8
20260831114124 55 180 0.0 2.0 0.00 0.00 0.00 89 1014.8
20260831113145 55 171 0.0 2.0 0.00 0.00 0.00 88 1015.0
20260831112124 56 88 0.0 2.0 0.00 0.00 0.00 87 1015.1
20260831111122 56 0 0.0 0.0 0.00 0.00 0.00 87 1015.1
20260831110122 56 0 0.0 0.0 0.00 0.00 0.00 86 1015.2
20260831105122 56 0 0.0 2.0 0.00 0.00 0.00 87 1015.3
20260831104122 57 0 0.0 0.0 0.00 0.00 0.00 86 1015.3
20260831103143 57 108 0.0 5.0 0.00 0.00 0.00 86 1015.4
20260831102124 57 116 0.0 3.0 0.00 0.00 0.00 86 1015.4
20260831101123 57 116 1.0 5.0 0.00 0.00 0.00 86 1015.3
20260831100122 57 116 1.0 6.0 0.00 0.00 0.00 86 1015.5
20260831095122 57 127 1.0 5.0 0.00 0.00 0.00 86 1015.6
20260831094124 57 94 0.0 3.0 0.00 0.00 0.00 86 1015.8
20260831093143 57 112 0.0 5.0 0.00 0.00 0.00 86 1015.9
20260831092125 57 128 2.0 6.0 0.00 0.00 0.00 86 1016.1
20260831091122 57 122 2.0 6.0 0.00 0.00 0.00 85 1016.1
20260831090124 57 125 1.0 5.0 0.00 0.00 0.00 85 1016.1
20260831085144 57 91 0.0 2.0 0.00 0.00 0.00 86 1016.3
20260831084124 57 125 1.0 5.0 0.00 0.00 0.00 86 1016.3
20260831083124 57 128 1.0 3.0 0.00 0.00 0.00 87 1016.4
20260831082124 57 128 0.0 3.0 0.00 0.00 0.00 87 1016.5
20260831081122 58 142 0.0 3.0 0.00 0.00 0.00 86 1016.6
20260831080124 58 0 0.0 0.0 0.00 0.00 0.00 85 1016.7
20260831075124 58 0 0.0 2.0 0.00 0.00 0.00 85 1016.8
20260831074122 58 0 0.0 2.0 0.00 0.00 0.00 86 1016.8
20260831073122 59 127 0.0 2.0 0.00 0.00 0.00 85 1016.8
20260831072145 59 136 0.0 2.0 0.00 0.00 0.00 84 1016.9
20260831071125 59 0 0.0 0.0 0.00 0.00 0.00 83 1017.0
20260831070122 59 127 0.0 2.0 0.00 0.00 0.00 84 1016.8
20260831065126 59 0 0.0 0.0 0.00 0.00 0.00 84 1016.9
20260831064122 59 128 0.0 3.0 0.00 0.00 0.00 84 1016.9
20260831063124 59 126 2.0 6.0 0.00 0.00 0.00 83 1017.0
20260831062123 60 122 1.0 5.0 0.00 0.00 0.00 82 1017.0
20260831061122 60 125 0.0 3.0 0.00 0.00 0.00 82 1017.1
20260831060122 60 129 1.0 3.0 0.00 0.00 0.00 82 1017.1
20260831055143 60 127 1.0 3.0 0.00 0.00 0.00 82 1017.2
20260831054124 61 0 0.0 0.0 0.00 0.00 0.00 82 1017.3
20260831053122 61 110 0.0 5.0 0.00 0.00 0.00 82 1017.3
20260831052122 61 110 0.0 5.0 0.00 0.00 0.00 82 1017.5
20260831051122 61 125 0.0 3.0 0.00 0.00 0.00 81 1017.5
20260831050127 61 127 2.0 6.0 0.00 0.00 0.00 80 1017.6